Miscellaneous Local Product
Issued by NWS Hastings, NE

Home | Current Version | Previous Version | Graphics & Text | Print | Product List | Glossary On
Versions: 1 2 3 4 5 6 7 8 9 10 11 12 13 14 15 16 17 18 19 20 21 22 23 24 25 26 27 28 29 30 31 32 33 34 35 36 37 38 39 40 41 42 43 44 45 46 47 48 49 50
000
AXUS43 KGID 242002
MISGRI

GID CWA HOURLY WEATHER ROUNDUP
NATIONAL WEATHER SERVICE HASTINGS NE
200 PM CST WED DEC 24 2014

NOTE: "FAIR" INDICATES FEW OR NO CLOUDS BELOW 12,000 FEET WITH NO
SIGNIFICANT WEATHER AND/OR OBSTRUCTIONS TO VISIBILITY.

...SOUTH CENTRAL NEBRASKA...

CITY           SKY/WX    TMP DP  RH WIND       PRES   REMARKS
GRAND ISLAND   SUNNY     38  23  55 W10       29.76F WCI  31
HASTINGS       SUNNY     37  22  54 W13       29.76F WCI  29
KEARNEY        SUNNY     37  19  48 SW10      29.76F WCI  30
ORD            SUNNY     36  21  54 SW8       29.72F WCI  30
YORK           SUNNY     36  28  75 W12       29.78F WCI  27
AURORA         SUNNY     37  26  65 W9        29.77F WCI  30
LEXINGTON      SUNNY     38  25  59 S10       29.76F WCI  31
HOLDREGE       SUNNY     37  23  56 W12       29.77F WCI  29
HEBRON         MOSUNNY   33  27  77 W5        29.81F WCI  29

...NEBRASKA PANHANDLE...

CITY           SKY/WX    TMP DP  RH WIND       PRES   REMARKS
CHADRON        MOSUNNY   36  26  67 S5        29.62F WCI  32
ALLIANCE       MOSUNNY   41  24  51 W14       29.63F
SCOTTSBLUFF    SUNNY     40  24  53 SW6       29.66F
SIDNEY         SUNNY     36  22  56 SW12      29.69F WCI  28

...WESTERN AND NORTH CENTRAL NEBRASKA...

CITY           SKY/WX    TMP DP  RH WIND       PRES   REMARKS
VALENTINE      SUNNY     35  21  56 SW10      29.64F WCI  27
AINSWORTH      SUNNY     34  24  66 SW12      29.64F WCI  25
ONEILL         SUNNY     32  25  75 S5        29.71F WCI  27
BROKEN BOW     SUNNY     36  25  64 S10       29.71F WCI  28
IMPERIAL       SUNNY     40  21  46 SW12      29.71F WCI  33
NORTH PLATTE   SUNNY     41  18  39 W13       29.70F
MCCOOK         SUNNY     41  18  39 SW10      29.76F

...EASTERN NEBRASKA...

CITY           SKY/WX    TMP DP  RH WIND       PRES   REMARKS
NORFOLK        CLOUDY    28  25  88 W7        29.74F WCI  21
SO SIOUX CITY  CLOUDY    29  26  89 NW12      29.77F WCI  19
TEKAMAH        CLOUDY    30  26  85 NW9       29.78F WCI  22
COLUMBUS       CLOUDY    30  23  74 W5        29.77F WCI  25
ALBION         SUNNY     34  25  70 W5        29.74F WCI  30
OMAHA EPPLEY   CLOUDY    31  28  89 NW7       29.79F WCI  24
OFFUTT AFB     CLOUDY    31  28  88 NW9       29.78F WCI  23
MILLARD        CLOUDY    31  27  85 W9        29.79F WCI  23
LINCOLN        CLOUDY    30  26  85 W6        29.81F WCI  24
NEBRASKA CITY  CLOUDY    32  31  96 NW12      29.79F WCI  23
BEATRICE       CLOUDY    30  27  89 NW8       29.81F WCI  23
FALLS CITY     CLOUDY    34  29  82 W13       29.81F WCI  25

...NORTHERN KANSAS...

CITY           SKY/WX    TMP DP  RH WIND       PRES   REMARKS
GOODLAND       SUNNY     39  20  46 SW21      29.75F WCI  29
HILL CITY      SUNNY     42  20  41 W13       29.81F
NORTON         CLEAR     39  19  45 SW10      29.77F WCI  32
PHILLIPSBURG   SUNNY     43  23  45 SW12      29.81F
SMITH CENTER   SUNNY     39  21  48 W13G18    29.81F WCI  32
BELOIT         SUNNY     41  27  56 SW12      29.83F
HAYS           SUNNY     43  18  36 SW13G20   29.83F
RUSSELL        SUNNY     42  23  46 W14       29.82F
CONCORDIA      SUNNY     37  28  70 W12       29.82F WCI  29
SALINA         MOSUNNY   40  29  64 W9        29.86F WCI  34
TOPEKA         CLOUDY    37  30  75 W8        29.85F WCI  31



USA.gov is the U.S. government's official web portal to all federal, state and local government web resources and services.